カタログに戻る

STARLINK-11087

運用中通信VLEO
NORAD 59421·PAYLOAD·🇺🇸 United States

打ち上げ Apr 7, 2024 から Vandenberg Space Force Base

Loading…

次のパス (今後24時間)

TLE

最新Source: CelesTrak SupGP

元期: Sep 15, 2026, 03:04 UTC

1 59421C 24065A   26258.12826389 -.00076496  00000+0 -62967-3 0  2584
2 59421  53.1574 240.1547 0001177  91.8096 308.0059 15.69764734    18

AllMySatでSTARLINK-11087をリアルタイム追跡

Download on the App Store